CZ-6A DEB, 54955

Orbit data source: Space-Track

CZ-6A DEB, 54955 is space debris in SSO originally from a launch on Fri, 11 Nov 2022 UTC launched from the Taiyaun Space Center, China (TSC). Debris objects in space refer to the collection of defunct objects orbiting the Earth. Examples of debris include non-operational satellites, rocket bodies, and fragments generated from explosions, collisions, or faulty payload assembly.

Loading next visibility...
Identifier
54955, 2022-151SU
Orbit
SSO
Country
Flag of CNCN / PRC
Related business
Manufacturer
SAST
Mission
Spacecraft
Bus & Motor
Unknown
Mass
Unknown
Launch date (UTC)
2022-11-11 (4 years ago)
Launch vehicle
Unknown
Launch site
Taiyaun Space Center, China (TSC)
Object type
Payload
Rocket body
Debris
Shape & HBR
Unknown shape, 0.1 m
Radar Cross Section
Medium (>0.1 m² and <1 m²)

Expand to show TLE details & history
Last TLE update: 21 hours ago

TLE from 21 hours ago
0 CZ-6A DEB
1 54955U 22151SU  26235.57539700  .00000483  00000-0  14800-3 0  9994
2 54955  98.5582 271.3960 0116381 128.3446 232.8272 14.42393212198514
Epoch: 2026-08-23T13:48Z
TLE epoch observation values (Epoch: 2026-08-23T13:48:34.300Z)
Latitude
-0.00003°
Longitude
92.38361°
Altitude
804.299 km
Speed
7.425 km/s
True Right ascension
18h 05m 35s
True Declination
0° 00' 00"
Sunlit
Object was in full shadow at epoch
Visualization orbit readout
Latitude
Unknown
Longitude
Unknown
Altitude
Unknown
Speed
Unknown
Apparent Right ascension
Unknown
Apparent Declination
Unknown
Sunlit
N/A
Visualization observer readout
Local Sidereal Time
02:10:56
Azimuth
Unknown
Elevation
Unknown
Doppler factor
Unknown
Orbital elements
Apogee altitude
830.655 km
Perigee altitude
664.792 km
Semi-major axis
7,125.86 km
Eccentricity
0.01164
Inclination
98.5582°
RAAN
271.396°
Arg. of periapsis
128.3446°
True anomaly
231.77386°
Mean anomaly
232.8272°
Eccentric anomaly
232.2996°
Mean motion
3.60817 °/min
Orbital period
99.77 mins
BSTAR
0.000148
Loading maneuver chart data...
Computing Atmospheric mass density...
Loading historical data...
Loading historical data...
Loading historical data...
Loading historical data...
Loading historical data...
Loading historical data...
Loading historical data...

Documentation

Showing up to 5 results
|